Back to catalog

GAOFEN 7

AliveScienceSSO
NORAD 44703·PAYLOAD·🇨🇳 China

Launched Nov 3, 2019 from Taiyuan Satellite Launch Center

Loading…

Next Passes (next 24 hours)

TLE

FreshSource: Space-Track

Epoch: Sep 14, 2026, 14:15 UTC

1 44703U 19072A   26257.59376359  .00003191  00000-0  14520-3 0  9995
2 44703  97.5628 318.6159 0020113  95.1822 265.1709 15.21282169381238

Track GAOFEN 7 in real time with AllMySat

Download on the App Store